Regional Weather Roundup
Issued by NWS

Home | Current Version | Previous Version | Text Only | Print | Product List | Glossary Off
Versions: 1 2 3 4 5 6 7 8 9 10 11 12 13 14 15 16 17 18 19 20 21 22 23 24 25 26 27 28 29 30 31 32 33 34 35 36 37 38 39 40 41 42 43 44 45 46 47 48 49 50

000
ASUS45 KBOU 240307
RWRCO

WEATHER ROUNDUP FOR COLORADO
NATIONAL WEATHER SERVICE DENVER/BOULDER CO
900 PM MDT WED JUL 23 2014

NOTE: "FAIR" INDICATES FEW OR NO CLOUDS BELOW 12000 FEET WITH NO
SIGNIFICANT WEATHER AND/OR OBSTRUCTIONS TO VISIBILITY.

COZ001>005-013-030-031-240400-
...NORTHWEST COLORADO...

CITY           SKY/WX    TMP DP  RH WIND       PRES   REMARKS
CRAIG          MOCLDY    76  46  34 VRB3      30.22R
HAYDEN         MOCLDY    81  39  22 SE20G25   30.26S
MEEKER         MOCLDY    81  42  25 E9        30.25R
MOUNT WERNER   NOT AVBL
STEAMBOAT SPGS MOCLDY    76  41  28 E12G18    30.31F
WALDEN         CLOUDY    66  39  37 E3        30.45R
$$

COZ006>008-011-240400-
...WEST CENTRAL VALLEYS...

CITY           SKY/WX    TMP DP  RH WIND       PRES   REMARKS
GRAND JUNCTION PTCLDY    86  37  17 CALM      30.09S
MONTROSE       MOCLDY    82  42  24 SE8       30.22S
EAGLE          CLOUDY    75  45  33 NE15      30.35F
RIFLE          MOCLDY    82  44  26 E20       30.20R
DELTA          MOCLDY    91  36  14 E13G24    30.15S
NUCLA          NOT AVBL
$$

COZ017>023-064>068-240400-
...SOUTHWEST COLORADO...

CITY           SKY/WX    TMP DP  RH WIND       PRES   REMARKS
DURANGO        PTCLDY    79  48  33 S13G22    30.34R
CORTEZ         CLEAR     86  42  21 S12G22    30.23R
PAGOSA SPRINGS MOCLDY    73  44  35 S5        30.48R
TELLURIDE      NOT AVBL
WOLF CREEK PAS NOT AVBL
$$

COZ009-010-012-014-032>034-037-058>063-240400-
...CENTRAL COLORADO...

CITY           SKY/WX    TMP DP  RH WIND       PRES   REMARKS
ASPEN          CLOUDY    67  47  48 SW9       30.47S
BUENA VISTA    MOCLDY    67  41  39 E3        30.53R
COPPER MTN     CLOUDY    54  37  54 S32G40    30.85S
BERTHOUD PASS  FAIR      48  34  57 MISG      30.88S
COTTONWOOD PAS MOCLDY    63  39  42 S6        30.68S
GUNNISON       MOCLDY    72  39  30 N6        30.48R
KREMMLING      PTCLDY    70  36  28 S13       30.43R
LEADVILLE      CLOUDY    52  46  80 NE9       30.66F
MONARCH PASS   PTCLDY    54  36  50 E21G28    30.92S
SALIDA         MOCLDY   N/A N/A N/A N8G20     30.57R
SUNLIGHT       CLOUDY    54  45  71 E5        30.70S
WILKERSON PASS CLOUDY    54  36  50 NW8       30.81F
$$

COZ069>075-240400-
...SAN LUIS VALLEY/SANGRE DE CRISTO MOUNTAINS...

CITY           SKY/WX    TMP DP  RH WIND       PRES   REMARKS
ALAMOSA        PTCLDY    70  48  45 S14       30.46R
LA VETA PASS   NOT AVBL
SAGUACHE       PTCLDY    72  41  33 SW18G24   30.47R
$$

COZ035-036-038>040-240400-
...NORTHERN COLORADO FRONT RANGE...

CITY           SKY/WX    TMP DP  RH WIND       PRES   REMARKS
DENVER INTL AP CLOUDY    77  48  35 SW22      30.23F
DMNS CITY PARK   N/A     74  51  43 S8G14     30.24S
AURORA         MOCLDY    73  51  44 S16       30.27F
FRONT RANGE AP NOT AVBL
ERIE MUNI ARPT CLOUDY    79  44  28 S9        30.19F
BOULDER MUN AP CLOUDY    81  45  28 SW8       30.20F
CENTENNIAL     CLOUDY    74  48  39 S16       30.30S
BROOMFIELD     MOCLDY    79  46  31 S9        30.24F
FORT COLLINS   MOCLDY    73  48  40 SE8       30.18F
LONGMONT       MOCLDY    80  46  30 S8        30.19F
$$

COZ041-046-047-076>085-087-088-240400-
...PIKES PEAK/PALMER DIVIDE AND SOUTHERN FOOTHILLS...

CITY           SKY/WX    TMP DP  RH WIND       PRES   REMARKS
COLO. SPRINGS  MOCLDY    75  46  35 NW5       30.35S
A. F. ACADEMY  CLOUDY    71  46  39 N5        30.38S
ELLICOTT       MOCLDY    78  54  43 E5        30.34S
FALCON         MOCLDY    72  45  38 N3        30.41F
FORT CARSON    MOCLDY    73  47  40 N8        30.32S
LIMON          CLOUDY    79  60  52 S10       30.28S
MONUMENT HILL  CLOUDY    64  46  52 S5        30.41F
TRINIDAD       PTCLDY    74  45  35 SW9       30.30F
$$

COZ042>045-048>051-090-091-240400-
...NORTHEAST COLORADO...

CITY           SKY/WX    TMP DP  RH WIND       PRES   REMARKS
GREELEY ARPT   MOCLDY    77  48  36 SW5       30.18S
AKRON          MOCLDY    79  58  48 S13       30.21R
BURLINGTON     CLOUDY    78  62  57 S9        30.21R
WRAY             N/A     83  59  45 SE10      30.15S
STERLING       MOCLDY    77  64  65 S5        30.14S
HOLYOKE        CLEAR     79  64  61 SE10      30.16R
FORT MORGAN    MOCLDY    77  48  35 S5        30.18F
$$

COZ086-089-092>099-240400-
...SOUTHEAST COLORADO...

CITY           SKY/WX    TMP DP  RH WIND       PRES   REMARKS
PUEBLO         CLEAR     85  59  41 E10       30.19S
LA JUNTA       CLEAR     83  54  36 SE8       30.16R
LAMAR          CLEAR     82  65  56 SE12      30.14R
SPRINGFIELD      N/A     75  52  44 S8        30.23R
$$


USA.gov is the U.S. government's official web portal to all federal, state and local government web resources and services.